McCook, NE

5:19 AM CDT on July 24, 2016 (GMT -0500)
McCook Municipal

Weather History for KMCK - October, 2013

Change the Weather History Date:

Tuesday, October 15, 2013

  Actual Average Record
Temperature  
Mean Temperature 41 °F 52 °F  
Max Temperature 51 °F 67 °F 95 °F (1929)
Min Temperature 31 °F 37 °F 26 °F (1952)
Degree Days  
Heating Degree Days 22    
Moisture  
Dew Point 31 °F    
Average Humidity 63    
Maximum Humidity 85    
Minimum Humidity 46    
Precipitation  
Precipitation 0.00 in 0.07 in 1.06 in (1966)
Month to date precipitation 0.54 0.89  
Year to date precipitation 12.06 20.04  
Sea Level Pressure  
Sea Level Pressure 30.16 in    
Wind  
Wind Speed 20 mph (NW)    
Max Wind Speed 29 mph    
Max Gust Speed 37 mph    
Visibility 10 miles    
Events      
T = Trace of Precipitation, MM = Missing Value Source: NWS Daily Summary

Daily Weather History Graph

Daily Weather History Graph

Search for Another Location

Airport or City:

Trip Planner

Search our weather history database for the weather conditions in past years. The results will help you decide how hot, cold, wet, or windy it might be!

Date:

Astronomy

Oct. 15, 2013 Rise Set
Actual Time 7:53 AM CDT 7:02 PM CDT
Civil Twilight 7:25 AM CDT 7:29 PM CDT
Nautical Twilight 6:54 AM CDT 8:00 PM CDT
Astronomical Twilight 6:22 AM CDT 8:32 PM CDT
Moon 5:08 PM CDT (10/15) 4:17 AM CDT (10/15)
Length of Visible Light 12h 03m
Length of Day
11h 08m
Waxing Gibbous, 88% of the Moon is Illuminated
Oct 15
Waxing Gibbous
Oct 18
Full
Oct 26
Last Quarter
Nov 3
New
Nov 9
First Quarter

Hourly Weather History & Observations

Time (CDT) Temp. Windchill Dew Point Humidity Pressure Visibility Wind Dir Wind Speed Gust Speed Precip Events Conditions
12:53 AM 43.0 °F 33.5 °F 33.1 °F 68% 30.02 in 10.0 mi NW 24.2 mph 33.4 mph N/A   Clear
1:53 AM 42.1 °F 33.3 °F 32.0 °F 67% 30.04 in 10.0 mi WNW 19.6 mph 26.5 mph N/A   Clear
2:53 AM 41.0 °F 32.8 °F 30.9 °F 67% 30.04 in 10.0 mi NW 16.1 mph 25.3 mph N/A   Clear
3:53 AM 39.9 °F 31.8 °F 30.0 °F 68% 30.06 in 10.0 mi NW 15.0 mph 25.3 mph N/A   Clear
4:53 AM 39.0 °F 29.6 °F 30.0 °F 70% 30.08 in 10.0 mi WNW 18.4 mph 27.6 mph N/A   Clear
5:53 AM 39.0 °F 29.9 °F 30.0 °F 70% 30.10 in 10.0 mi NW 17.3 mph 25.3 mph N/A   Clear
6:53 AM 39.0 °F 28.8 °F 30.0 °F 70% 30.10 in 10.0 mi NW 21.9 mph 32.2 mph N/A   Clear
7:53 AM 37.9 °F 27.6 °F 30.0 °F 73% 30.14 in 10.0 mi WNW 20.7 mph 27.6 mph N/A   Clear
8:53 AM 39.9 °F 30.5 °F 30.0 °F 68% 30.16 in 10.0 mi NW 19.6 mph 27.6 mph N/A   Clear
9:53 AM 44.1 °F 34.6 °F 30.9 °F 60% 30.18 in 10.0 mi NW 26.5 mph 34.5 mph N/A   Clear
10:53 AM 46.0 °F 37.0 °F 30.9 °F 56% 30.19 in 10.0 mi NW 27.6 mph 36.8 mph N/A   Scattered Clouds
11:53 AM 46.9 °F - 30.9 °F 54% 30.20 in 10.0 mi NNW 25.3 mph 35.7 mph N/A   Mostly Cloudy
12:53 PM 50.0 °F - 30.9 °F 48% 30.20 in 10.0 mi NW 25.3 mph 32.2 mph N/A   Mostly Cloudy
1:53 PM 51.1 °F - 30.9 °F 46% 30.19 in 10.0 mi NW 28.8 mph 33.4 mph N/A   Overcast
2:53 PM 51.1 °F - 30.9 °F 46% 30.19 in 10.0 mi NW 25.3 mph 34.5 mph N/A   Overcast
3:53 PM 48.0 °F - 30.0 °F 50% 30.20 in 10.0 mi NW 24.2 mph 31.1 mph N/A   Overcast
4:53 PM 48.0 °F - 30.9 °F 52% 30.21 in 10.0 mi NNW 25.3 mph 29.9 mph N/A   Overcast
5:53 PM 46.9 °F - 30.9 °F 54% 30.20 in 10.0 mi NNW 21.9 mph 27.6 mph N/A   Overcast
6:53 PM 44.1 °F 36.8 °F 30.0 °F 58% 30.21 in 10.0 mi NNW 16.1 mph 25.3 mph N/A   Scattered Clouds
7:53 PM 42.1 °F 33.6 °F 30.0 °F 62% 30.23 in 10.0 mi NNW 18.4 mph - N/A   Clear
8:53 PM 39.9 °F 32.1 °F 30.0 °F 68% 30.24 in 10.0 mi NNW 13.8 mph - N/A   Clear
9:53 PM 39.0 °F 33.4 °F 30.0 °F 70% 30.25 in 10.0 mi NNW 8.1 mph - N/A   Clear
10:53 PM 36.0 °F 31.1 °F 30.0 °F 79% 30.26 in 10.0 mi West 5.8 mph - N/A   Clear
11:53 PM 33.1 °F 26.9 °F 28.9 °F 85% 30.26 in 10.0 mi West 6.9 mph - N/A   Clear